Home   Weather   Hangzhou   Past weeks

Flag for China Past Weather in Hangzhou, Zhejiang, China — Yesterday and Last 2 Weeks

Now
57 °F

Clear.


Feels Like: 57 °F
Forecast: 54 / 70 °F
Wind: 3 mph from Northeast

Location: Hangzhou Airport

Current Time: Apr 27, 2017 at 5:46:28 am

Latest Report: Apr 27, 2017 at 5:00 am


Visibility: 10 mi

Pressure: 30.09 "Hg

Humidity: 63%

Dew Point: 45 °F

Location of HangzhouLocation

Past Weather in Hangzhou — Graph

°F

Hangzhou Temperature Yesterday

Maximum temperature yesterday: 68 °F (at 2:00 pm)
Minimum temperature yesterday: 59 °F (at 11:30 pm)
Average temperature yesterday: 63 °F

High & Low Weather Summary for the Past Weeks

 TemperatureHumidityPressure
High90 °F (Apr 16, 3:00 pm)100% (Apr 17, 7:30 am)30.18 "Hg (Apr 17, 7:30 am)
Low46 °F (Apr 13, 2:00 am)22% (Apr 12, 5:00 pm)29.65 "Hg (Apr 17, 4:30 am)
Average68 °F66%29.91 "Hg
* Reported Apr 12 4:00 am — Apr 27 4:30 am, Hangzhou, Weather by CustomWeather, © 2017

Note: Actual official high and low records may vary slightly from our data, if they occured in-between our weather recording intervals... More about our weather records

Advertising

Hangzhou Weather History for the Previous 24 Hours

Scroll right to see more
 ConditionsComfort  
Time TempWeatherWind HumidityBarometerVisibility
4:30 am
Thu, Apr 27
57 °FClear.1 mph72%30.09 "Hg10 mi
4:00 am57 °FPassing clouds.3 mph72%30.09 "HgN/A
3:30 am59 °FClear.1 mph63%30.09 "Hg10 mi
3:00 am59 °FPassing clouds.3 mph63%30.09 "HgN/A
2:30 am59 °FPassing clouds.3 mph59%30.09 "HgN/A
2:00 am59 °FPassing clouds.6 mph59%30.09 "HgN/A
1:30 am59 °FPassing clouds.3 mph63%30.09 "HgN/A
1:00 am59 °FPassing clouds.3 mph68%30.12 "HgN/A
12:30 am57 °FPassing clouds.3 mph72%30.12 "HgN/A
12:00 am57 °FSprinkles. Passing clouds.6 mph67%30.12 "HgN/A
11:30 pm
Wed, Apr 26
59 °FClear.6 mph59%30.12 "Hg10 mi
11:00 pm61 °FClear.10 mph52%30.12 "Hg10 mi
10:30 pm61 °FPassing clouds.8 mph55%30.12 "HgN/A
10:00 pm61 °FPassing clouds.10 mph59%30.12 "HgN/A
9:30 pm61 °FPassing clouds.13 mph55%30.12 "HgN/A
9:00 pm63 °FPassing clouds.15 mph56%30.12 "HgN/A
8:30 pm63 °FPassing clouds.10 mph77%30.09 "HgN/A
8:00 pm63 °FPassing clouds.8 mph77%30.09 "HgN/A
7:30 pm63 °FLight rain. Passing clouds.10 mph77%30.07 "HgN/A
7:00 pm63 °FLight rain. Passing clouds.10 mph83%30.07 "Hg5 mi
6:30 pm63 °FLight rain. Broken clouds.13 mph83%30.04 "Hg4 mi
6:00 pm64 °FBroken clouds.15 mph83%30.04 "Hg4 mi
5:30 pm64 °FBroken clouds.13 mph83%30.01 "Hg4 mi
5:00 pm64 °FSprinkles. Fog.13 mph88%30.01 "Hg2 mi
4:30 pm64 °FSprinkles. Fog.8 mph88%30.01 "Hg3 mi
4:00 pm64 °FScattered clouds.8 mph88%30.01 "Hg4 mi
3:30 pm68 °FScattered clouds.6 mph78%30.01 "HgN/A
3:00 pm68 °FSprinkles. Broken clouds.8 mph73%30.01 "HgN/A
2:30 pm68 °FBroken clouds.8 mph73%30.01 "HgN/A
2:00 pm68 °FBroken clouds.8 mph73%30.01 "HgN/A
1:30 pm66 °FBroken clouds.8 mph78%30.01 "HgN/A
1:00 pm66 °FBroken clouds.8 mph83%30.01 "HgN/A
12:30 pm66 °FBroken clouds.6 mph83%30.04 "HgN/A
12:00 pm66 °FBroken clouds.8 mph83%30.04 "HgN/A
11:30 am64 °FBroken clouds.6 mph88%30.04 "HgN/A
11:00 am63 °FFog.8 mph94%30.04 "Hg3 mi
10:30 am61 °FLight rain. Fog.15 mph94%30.04 "Hg2 mi
10:00 am63 °FLight rain. Fog.10 mph94%30.04 "Hg2 mi
9:30 am63 °FLight rain. Fog.6 mph94%30.04 "Hg2 mi
9:00 am63 °FLight rain. Fog.6 mph94%30.04 "Hg2 mi
8:30 am61 °FLight rain. Fog.6 mph100%30.01 "Hg2 mi
8:00 am61 °FLight rain. Fog.6 mph94%30.01 "Hg2 mi
7:30 am61 °FLight rain. Fog.15 mph94%30.01 "Hg2 mi
7:00 am63 °FLight rain. Fog.10 mph88%29.98 "Hg2 mi
6:30 am63 °FPartly sunny.6 mph88%29.98 "HgN/A
6:00 am61 °FLight rain. Partly sunny.8 mph94%29.95 "HgN/A
5:30 am61 °FLight rain. Broken clouds.8 mph94%29.95 "HgN/A
5:00 am61 °FLight rain. Partly cloudy.13 mph94%29.95 "Hg4 mi
Weather by CustomWeather, © 2017

See weather overviewHow to use our weather pages